CAPE
0 0 0 0 0 0 1 3 1 1 1 1 5 6 3 6 4 1 1 0 0 1 0 5 12 30 11 1 7 6 21 1 7 18 31 167 213 158 10 0 21 0 0 0 2 19 42 0 34 136 34 0 4 0
0 0 0 0 0 0 1 3 1 1 1 1 5 5 0 4 0 4 2 2 2 1 0 0 0 3 32 14 0 0 6 25 14 2 10 2 4 17 180 143 122 70 165 70 47 7 0 0 0 0 0 0 0 0
0 0 0 0 0 0 1 2 2 1 1 0 1 0 0 0 0 7 1 1 1 1 0 3 9 65 29 31 0 0 3 2 0 0 0 3 4 4 3 4 1 32 0 16 6 0 0 0 0 0 0 0 0 0
0 0 0 0 0 0 1 2 2 1 2 1 0 0 0 0 0 0 8 0 0 1 1 30 28 97 60 33 0 0 0 0 0 0 1 1 0 2 5 2 5 4 0 0 0 0 0 0 0 0 0 0 0 0
0 0 0 0 0 0 2 2 1 1 1 2 0 0 0 0 0 5 18 0 0 3 2 1 24 39 10 12 25 0 0 0 1 1 0 0 0 0 0 10 16 0 1 0 0 0 0 0 0 0 0 0 0 0
0 0 0 0 0 1 2 2 1 1 1 0 0 0 0 0 0 11 0 4 7 25 1 3 14 56 11 19 30 0 0 0 3 24 0 0 0 0 2 3 21 13 27 31 0 0 0 0 0 0 0 0 0 0
0 0 0 0 0 1 1 1 1 0 1 0 0 0 0 0 0 1 1 4 1 2 9 14 9 21 0 21 40 8 0 0 0 0 0 0 0 0 4 6 11 2 0 0 0 6 1 0 0 0 0 0 0 0
0 0 0 0 0 1 1 1 0 0 1 0 0 0 0 0 0 6 1 0 1 9 13 7 8 23 2 0 14 44 59 5 0 20 28 17 3 12 5 3 7 5 1 1 0 1 0 0 0 0 0 0 0 0
0 0 0 0 0 0 0 0 0 1 1 0 0 0 1 0 6 1 0 0 7 1 3 11 1 5 1 5 1 7 18 46 19 4 24 0 0 0 1 1 4 2 2 4 1 0 0 0 2 0 0 0 0 0
0 0 0 0 0 1 1 0 0 1 1 0 0 2 2 1 0 0 0 4 1 0 0 1 3 0 0 3 7 4 3 2 19 6 7 12 8 6 8 4 0 8 5 7 5 2 1 0 0 0 0 0 0 0
0 0 0 0 1 1 1 0 0 0 0 1 2 3 1 0 1 3 3 2 2 1 1 2 1 0 0 0 0 6 2 0 0 1 0 0 7 21 9 3 20 0 0 0 2 6 6 5 3 0 0 0 0 0
0 0 0 0 1 1 1 1 0 0 1 1 1 1 2 2 3 2 2 0 0 1 0 2 2 0 1 3 3 0 0 0 3 0 1 2 12 13 12 2 5 0 0 0 1 5 5 6 4 7 2 0 0 0
0 0 0 0 1 1 1 1 0 0 0 1 1 3 2 55 21 8 1 2 6 11 1 0 0 2 2 3 3 0 0 11 0 4 15 13 12 11 21 9 0 0 0 0 0 1 4 3 9 16 7 0 0 0
0 0 0 0 0 0 2 1 0 0 0 3 45 8 152 14 17 17 18 51 203 167 0 0 0 0 2 1 0 1 4 1 3 1 5 24 21 8 14 21 7 0 0 0 0 1 4 4 3 3 13 1 2 0
0 0 0 0 0 0 0 1 0 0 3 162 149 27 29 17 34 13 60 51 43 79 7 19 3 0 2 0 0 5 1 0 0 1 8 22 28 7 19 21 10 4 4 7 0 1 3 2 3 5 1 1 9 5
0 0 0 0 0 0 0 0 0 2 244 93 129 65 23 33 22 0 1 7 41 29 90 104 122 55 11 19 5 1 0 0 0 6 5 23 12 7 11 11 9 7 45 21 0 1 3 3 3 3 2 0 0 0
0 24 0 0 0 0 0 0 54 156 101 67 16 17 30 20 18 0 0 0 3 24 50 68 18 6 30 8 10 3 14 4 10 12 18 6 8 0 2 4 3 4 62 10 0 0 2 2 2 2 2 2 1 1
0 0 0 0 0 0 0 0 372 191 63 42 12 6 1 1 4 1 0 2 1 2 16 7 6 0 2 5 5 15 16 14 12 11 11 0 0 0 5 0 0 3 55 10 0 0 0 0 1 2 2 2 2 3
0 0 0 0 0 0 559 463 319 250 129 14 6 11 9 12 17 19 25 18 17 10 1 3 3 2 2 6 9 6 1 0 1 3 6 0 0 0 1 0 0 0 33 6 2 1 7 0 0 1 0 0 2 3
0 0 0 0 0 371 445 351 268 206 126 27 9 4 4 15 15 3 5 5 1 0 1 0 4 3 3 1 0 1 0 0 0 0 0 0 0 0 0 0 0 0 13 36 25 4 6 5 2 0 0 0 0 0
0 34 0 0 208 652 187 19 206 242 105 33 6 8 3 7 11 10 4 5 5 8 7 9 6 1 0 1 0 0 0 0 0 0 0 0 0 0 0 0 0 0 0 4 15 17 4 0 1 16 0 0 0 0
324 0 676 527 736 456 417 45 304 357 185 34 72 31 33 27 9 8 1 6 9 2 6 1 0 28 2 0 0 0 0 0 0 0 0 0 0 0 0 0 4 2 2 4 3 3 4 2 0 1 0 5 0 0
115 231 920 358 267 59 50 204 194 262 139 94 52 72 68 21 6 10 11 12 12 12 16 0 1 0 9 5 1 0 0 0 0 0 0 0 0 0 0 1 2 4 1 0 0 0 2 0 0 0 0 0 0 0
0 679 309 110 38 7 183 307 178 284 265 167 165 19 89 45 10 30 17 12 10 1 11 33 56 18 17 31 0 0 0 0 0 0 0 0 0 0 0 0 0 0 0 0 1 0 0 0 0 3 3 0 0 0
319 0 5 0 10 65 67 103 145 239 104 155 132 49 54 16 29 23 38 11 10 16 23 22 0 1 0 0 0 0 0 1 0 0 0 1 1 0 1 0 1 0 0 4 6 3 0 1 1 7 5 0 0 0
42 11 9 36 95 65 75 30 93 93 82 26 96 117 30 82 19 34 7 2 3 0 1 0 0 0 0 0 0 1 0 0 2 1 2 5 0 3 2 11 19 0 12 10 5 13 13 11 5 9 7 10 4 3
0 202 183 3 65 98 156 204 23 0 0 0 38 50 1 25 1 5 2 0 3 0 0 0 0 0 3 0 0 0 0 0 0 2 3 3 3 2 3 12 21 4 24 33 10 10 6 12 8 6 4 5 8 11
292 189 110 241 132 0 0 8 125 57 163 181 115 69 13 1 1 1 5 3 1 0 0 0 1 2 2 1 13 2 0 0 0 2 4 1 5 7 8 11 16 1 4 17 11 17 3 4 7 7 8 18 7 10
55 93 391 334 20 0 0 81 123 152 155 208 126 59 3 1 3 2 0 0 0 0 29 9 14 16 16 17 14 4 0 0 0 4 8 14 9 7 9 11 19 14 12 24 1 1 3 0 2 0 6 15 32 24
0 20 214 141 50 80 29 36 10 3 0 0 0 2 2 1 0 0 2 13 25 20 8 15 12 2 2 0 0 0 0 0 0 1 0 8 9 8 22 18 29 24 31 41 56 26 28 23 45 55 28 38 31 30
82 186 123 209 97 38 0 0 0 0 0 0 0 0 0 2 3 5 19 19 67 50 14 16 7 0 0 0 0 0 2 1 3 4 0 0 6 12 23 24 17 23 26 36 38 44 33 14 20 8 13 12 12 10
75 0 0 65 143 21 33 61 0 0 0 0 4 4 2 1 9 20 27 75 38 15 0 0 0 0 0 1 4 0 0 5 0 0 0 0 4 6 17 14 9 21 32 24 13 16 16 16 15 13 13 7 8 8
3 8 0 4 184 231 60 0 75 48 18 11 15 14 24 10 24 28 30 26 9 5 0 0 0 0 0 0 6 7 7 1 0 0 0 0 0 0 2 9 8 17 18 17 20 17 17 13 12 10 11 8 6 6
CIN
0 0 0 0 0 0 -1 -1 -2 -2 -3 -2 -1 0 0 -1 0 0 0 0 0 0 0 0 -4 -5 -1 -8 -3 -3 -13 -3 -59 -13 -43 -4 -21 -85 -6 0 -1 0 0 0 -92 -57 -22 0 -311 -153 -355 -10 -361 0
0 0 0 0 0 0 0 0 -3 -1 -2 -2 0 -1 0 -3 0 0 0 0 0 0 0 0 0 -37 -3 -2 0 -1 -1 -5 -1 0 0 0 0 -132 -12 -3 -14 -11 -28 -11 -34 -116 0 0 0 0 0 0 0 -36
0 0 0 0 0 0 0 0 -1 -3 -2 -1 -1 0 0 0 0 0 0 0 0 0 0 -7 -2 -2 -3 -4 0 0 -20 -2 0 0 0 0 0 -1 0 0 0 -25 -64 -50 -5 0 0 0 0 0 0 0 0 0
0 0 0 0 0 0 0 0 -1 -1 -2 -2 0 0 0 0 0 -4 -2 0 0 0 0 -1 -11 -3 -5 -4 0 0 0 0 -9 0 0 0 0 -1 0 -2 0 -1 0 0 0 -3 0 0 0 0 0 0 0 0
0 0 0 0 0 0 0 0 -2 -2 -2 -4 0 0 0 0 0 -1 0 0 -1 0 0 -1 -5 -3 -2 -3 -2 0 0 0 -11 -27 0 0 0 0 0 -5 0 0 0 0 0 0 0 0 0 0 0 0 0 0
0 0 0 0 0 -1 0 0 -2 -2 -1 -2 0 0 0 0 0 0 0 -2 0 0 0 0 -2 -2 -1 -2 -2 0 0 -2 -8 -2 -8 0 0 0 0 0 0 -1 -3 -3 0 0 0 0 0 0 0 0 0 0
0 0 0 0 0 0 0 0 -1 -3 -2 0 0 0 0 0 0 0 0 -1 -5 -1 0 0 -2 -1 0 -2 -3 -5 0 0 0 -1 0 0 0 0 -1 0 0 -1 0 -1 0 -14 -1 0 0 0 0 0 0 0
0 0 0 0 0 0 0 -1 -2 -2 -2 0 0 0 0 0 0 0 -1 0 0 0 0 -1 -2 -1 -1 0 -19 -8 -10 -3 0 -14 -16 -16 -51 -12 -1 0 0 0 0 -8 0 -2 -3 0 0 0 0 0 0 0
0 0 0 0 0 0 0 0 0 -1 0 0 0 0 -1 0 0 -1 0 0 0 0 0 0 0 0 -1 0 0 -65 -36 -5 -7 -2 -2 0 0 0 0 0 0 0 0 0 0 -1 -1 -1 -4 0 0 0 0 0
0 0 0 0 0 -1 0 -1 -1 0 0 0 0 0 0 0 0 0 -1 0 0 0 0 0 0 -1 0 -1 0 -46 0 -1 -4 -1 -1 -1 0 -1 -1 -3 0 0 0 0 0 0 0 -1 0 0 0 0 0 0
0 0 0 0 0 0 0 -1 0 0 0 0 0 0 0 0 0 0 0 0 0 0 0 0 0 -1 0 0 -1 0 0 0 0 0 0 0 0 0 0 0 -1 0 0 0 0 0 0 0 -1 0 0 0 0 0
0 0 0 0 0 0 0 0 0 0 0 0 0 0 0 0 0 0 0 0 0 -1 0 -1 0 0 -1 0 0 0 0 0 0 0 0 -5 0 -1 -1 0 -5 0 0 0 0 0 0 0 0 0 -1 0 0 0
0 0 0 0 0 0 0 0 0 0 0 -1 -1 0 0 -7 -6 -3 -15 -21 -14 -7 0 0 0 0 -1 -1 -1 -1 0 -3 -5 -5 0 -1 -1 -4 -1 -1 0 0 0 0 0 0 0 0 0 0 -1 -1 0 0
0 0 0 0 0 0 0 0 0 0 0 0 -21 -8 -6 -3 -4 -10 -11 -10 -5 -1 -1 -1 0 0 0 0 0 -1 0 -3 -2 -10 0 -1 -1 -9 -3 -1 -1 0 0 -6 0 0 0 0 0 -2 -2 -1 0 -2
0 0 0 0 0 0 0 0 0 0 0 -21 -7 -7 -14 -25 -9 -4 -1 -16 -16 -2 -16 -2 -9 0 0 0 -1 -1 -1 0 0 0 -1 -1 -1 -2 -2 -1 -1 -1 -1 -13 0 0 0 0 0 0 0 -6 -9 -14
0 0 0 0 0 0 0 0 0 0 -5 -3 -1 -3 -8 -11 -11 -4 -8 -7 -5 -26 -5 -6 -3 -1 0 -2 0 0 -3 0 0 -2 -4 -1 -6 -2 -1 -1 -1 -1 -2 -6 0 0 0 0 0 0 0 0 0 0
0 -42 0 0 0 0 0 0 -24 -4 -12 -5 -6 -14 -3 -4 0 0 0 0 -25 -14 -2 -2 -4 -16 -1 -2 -2 -1 0 -3 -2 -1 -3 -4 0 0 0 -1 -1 0 -3 -22 0 0 0 0 0 0 0 0 0 0
0 0 0 0 0 0 0 0 -9 -5 -2 -1 -2 -2 -2 0 -1 0 0 -8 -6 -1 -2 -6 -3 0 0 0 -1 -3 -2 -3 -3 -2 -3 -2 0 0 -1 0 0 0 -2 -26 0 0 0 0 0 0 0 0 0 0
0 0 0 0 0 0 -1 -15 -1 0 -2 -8 -12 -1 -2 -1 0 -1 -1 -4 -9 -1 -1 -1 -1 -2 -2 -3 -2 -2 -4 0 -2 -3 -2 0 0 0 -1 0 0 0 -13 -52 -57 -10 -1 0 0 0 0 0 0 0
0 0 0 0 0 -53 -8 -5 -42 -1 -1 -1 -5 -2 -6 -1 -1 -7 -9 -2 -5 0 -3 0 -1 -4 -2 -2 0 -2 0 0 0 0 0 0 0 0 0 0 0 0 -5 -8 -12 -16 -3 -2 -1 0 0 0 0 0
0 -56 0 0 -127 -60 -1 -1 -4 -2 -1 -1 -4 -8 -2 -1 -3 -1 -2 -2 -4 -3 -3 -3 -2 -2 0 -1 0 0 0 0 0 0 0 0 0 0 0 0 -4 0 0 -5 -3 -2 -2 -1 -1 -1 -4 0 0 0
-74 0 -27 -88 -14 -1 -2 -2 -4 -5 -3 -2 -2 -7 -1 -1 -4 -1 -2 -4 -1 0 -3 -4 0 -3 -7 0 0 0 0 0 -3 0 0 0 0 0 0 0 -4 -4 -3 -7 -6 -8 -6 -5 0 -4 0 -7 -2 0
-64 -122 -21 -2 -2 -27 -2 -3 -2 -3 -3 -3 -7 -1 -1 -1 -3 -1 -1 -1 -2 -2 -2 -2 -2 0 -1 -2 -2 0 0 0 0 0 0 0 0 -3 -3 -4 -5 -5 -3 0 0 0 -4 0 0 -3 -1 0 0 0
0 -8 -2 -5 -11 -9 -5 -5 -1 -1 -1 -3 -1 -2 -3 -3 -5 -2 -1 -1 -1 -4 -7 -6 -2 -10 -15 -3 0 0 0 0 0 0 0 0 -5 0 -1 -9 -6 -2 0 -1 -12 0 0 0 -1 -5 -5 -1 0 0
-26 0 -1 0 -7 -6 -2 -9 -3 -2 -3 -8 -2 -5 -8 -5 -2 -1 -1 -1 -1 -2 -1 -3 -5 -4 -4 0 0 -6 0 -4 -5 -4 0 -6 -5 -1 -9 0 -9 0 0 -5 -4 -4 -4 -4 -6 -3 -4 -1 0 0
-30 -23 -7 -2 -2 -2 -2 -14 -4 -2 -3 -5 -4 -2 -13 -3 -5 -8 -2 -1 -2 0 -2 0 0 0 0 0 -1 -2 0 -2 -6 -4 -7 -8 -4 -5 -4 -5 -3 -5 -4 -7 -5 -4 -4 -4 -5 -5 -6 -4 -9 -4
0 -2 -12 -31 -72 -41 -2 -9 -20 0 0 0 -7 -28 0 -14 0 0 0 0 0 0 0 0 0 -1 -5 -4 -4 0 0 0 -5 -3 -8 -7 -6 -5 -7 -4 -3 -5 -2 -2 -4 -5 -4 -3 -7 -4 -5 -15 -13 -9
-2 -1 -3 -3 -30 0 0 -19 -5 -30 -19 -5 -2 -3 -11 0 0 0 0 -5 -12 0 0 0 -4 -4 -4 -4 -5 -7 0 0 -5 -6 -6 -8 -5 -2 -3 -3 -4 -24 -16 -1 -14 -4 -5 -6 -4 -5 -8 -5 -10 -6
-93 -80 -28 -13 -59 0 -1 -24 -3 -6 -16 -6 -24 -38 0 0 0 0 0 0 0 0 -13 -6 -5 -7 -6 -6 -10 -10 0 0 -1 -3 -5 -4 -6 -5 -3 -5 -4 -2 -3 -5 -4 -7 -35 0 -31 0 -45 -16 -5 -4
0 -127 -12 -5 -12 -10 -2 -1 -6 -88 0 0 0 0 0 0 0 0 -1 -1 -1 0 -5 -4 -6 -4 -7 -4 -8 0 0 0 0 -4 -1 -4 -5 -6 -7 -8 -3 -6 -8 -12 -5 -16 -11 -13 -1 -3 -7 -4 -2 -6
-3 -4 -12 -8 -10 -11 -6 0 0 0 0 0 0 0 0 0 -1 -1 -3 -3 -4 -2 -6 -4 -8 0 -1 0 0 -2 -6 -5 -5 -3 0 -1 -4 -3 -4 -2 -4 -2 -2 -3 -2 -4 -3 -10 -2 -3 -3 -2 -2 -1
-11 0 0 -9 -13 -13 -54 -96 -75 -1 0 0 -1 -1 0 -1 0 0 -1 -5 -3 -4 0 -7 0 0 0 -7 -5 0 0 -4 -2 0 0 0 -3 -3 -3 -4 -2 -1 -3 -1 -10 -6 -3 -2 -3 -2 -3 -2 -3 -5
-250 -10 0 -1 -18 -16 -67 0 -40 -23 -4 0 -1 -1 -1 -3 0 -1 -1 -1 -3 -4 0 0 0 0 0 -1 -3 -7 -6 -4 0 0 0 0 0 0 -2 -2 -2 -2 -3 -3 -3 -2 -2 -2 -2 -2 -2 -2 -1 -4
Wind_Speed
15 16 9 15 18 21 20 21 21 22 24 23 20 18 18 15 12 11 13 10 10 10 6 4 3 4 19 19 21 20 15 14 13 12 15 19 27 28 38 37 39 42 44 47 43 43 34 24 20 22 15 13 15 17
17 10 12 17 21 20 20 20 20 22 23 22 19 18 19 16 14 13 14 12 10 10 8 6 7 9 20 15 17 16 15 15 13 14 14 15 19 21 22 33 25 35 27 38 35 26 15 10 7 8 10 12 12 15
16 8 20 25 19 18 18 20 19 21 21 20 19 20 21 17 17 16 16 16 15 13 10 11 13 12 16 17 16 18 16 17 17 13 14 15 18 16 23 21 25 23 21 27 25 19 14 9 9 9 10 12 13 13
14 19 23 20 18 19 18 19 17 20 20 19 20 21 21 19 20 19 19 16 16 16 18 16 16 13 15 14 17 20 20 20 21 17 12 18 13 10 10 12 12 18 18 20 17 17 14 12 12 13 12 12 14 15
19 21 22 14 19 16 16 16 16 17 18 17 18 20 18 19 19 18 20 18 16 18 19 16 12 14 13 15 16 17 18 20 20 14 12 14 8 12 11 7 3 4 8 13 19 18 18 18 17 14 15 16 17 17
10 21 30 36 18 13 14 15 16 16 16 15 16 17 17 17 17 16 19 16 17 16 18 20 14 11 15 16 16 15 17 19 19 17 12 13 9 12 14 14 8 10 13 16 21 19 19 16 15 16 17 17 18 18
16 27 34 34 17 12 14 15 16 17 15 15 15 17 17 17 17 19 22 19 18 19 17 19 19 15 10 17 17 16 15 17 16 14 16 16 11 13 11 12 17 15 18 19 18 18 19 20 19 20 19 19 19 19
20 31 29 8 14 14 15 14 14 16 16 16 16 16 18 19 20 18 19 20 18 17 18 19 22 20 11 16 14 11 15 15 13 14 16 16 14 13 16 19 21 22 20 18 20 22 24 23 21 19 20 20 21 21
23 31 33 11 16 15 14 13 14 14 15 15 16 16 15 15 16 17 19 17 20 20 21 19 20 21 13 16 15 11 12 13 11 12 13 13 14 14 20 24 24 23 23 25 25 23 23 23 23 22 23 23 23 24
29 33 32 25 17 16 13 13 14 15 15 15 14 13 15 16 18 18 16 18 17 19 21 22 19 22 20 17 18 17 16 16 19 10 15 13 14 19 20 19 21 25 25 26 26 27 27 28 29 29 30 29 29 28
34 31 32 25 18 15 13 13 14 16 16 15 14 15 17 16 15 14 15 15 18 18 19 20 21 22 21 23 23 21 21 18 19 15 15 8 16 21 23 23 18 23 24 25 27 28 30 31 32 33 33 33 33 33
32 29 32 26 17 14 13 12 12 13 15 15 16 16 15 15 15 15 16 16 16 18 18 18 17 17 18 19 20 20 20 18 20 15 19 22 4 12 22 24 23 24 26 27 27 27 28 30 32 34 35 35 36 36
29 27 26 22 15 14 13 11 9 9 13 13 14 14 13 14 16 18 19 16 15 14 14 17 17 17 16 16 16 17 16 18 17 15 12 6 14 16 18 21 24 27 30 28 29 28 28 29 30 32 35 35 36 36
24 25 31 17 16 12 9 9 9 10 12 13 13 14 13 15 17 16 15 18 18 17 14 15 18 16 16 17 16 17 17 17 17 16 15 4 9 12 13 19 21 23 27 28 30 28 28 29 30 31 31 32 33 34
22 25 16 13 14 13 9 10 11 11 13 11 13 17 18 14 22 25 19 20 14 18 14 14 15 15 16 17 17 18 17 18 17 16 15 10 20 21 18 20 20 22 24 26 29 28 28 29 29 29 30 29 29 32
24 3 16 20 18 17 15 15 13 13 11 12 17 20 16 15 20 22 24 23 25 20 17 13 15 15 15 16 18 19 18 18 18 18 10 25 26 26 24 24 23 22 25 27 28 25 26 26 28 28 26 26 26 27
13 16 17 21 18 15 14 13 13 17 17 18 21 26 24 22 20 21 25 26 26 20 20 17 18 20 18 18 20 21 21 20 21 23 23 23 27 28 27 28 27 28 26 28 30 27 26 28 28 27 27 27 27 27
13 15 16 20 16 14 13 13 15 17 20 23 25 27 25 23 22 22 16 17 18 19 20 18 17 21 18 19 20 20 21 20 22 24 24 25 28 28 28 29 29 28 24 27 28 28 28 28 28 29 28 27 26 25
4 5 6 6 12 14 13 14 16 20 22 23 24 23 21 21 21 19 19 13 8 20 17 18 18 19 19 19 21 21 23 24 25 25 24 27 28 28 27 29 28 28 23 24 27 27 25 27 26 28 28 27 26 26
6 9 10 11 14 15 16 17 18 20 20 21 20 22 21 21 22 23 23 23 22 19 18 17 18 20 21 21 22 23 24 24 24 25 27 28 28 28 28 28 28 29 24 23 25 25 26 27 25 25 26 28 28 28
14 15 15 16 14 13 17 17 19 20 18 18 19 17 19 19 21 21 22 22 22 22 21 20 19 19 20 21 23 23 24 24 25 25 27 28 29 28 28 28 28 28 28 28 28 27 28 28 27 24 24 26 27 28
16 15 14 14 15 16 14 19 19 18 18 19 18 17 18 18 18 17 19 20 21 19 21 21 21 18 19 20 21 25 26 26 23 24 28 29 29 29 29 28 28 29 28 30 31 29 28 27 28 28 28 25 24 26
14 14 14 15 15 16 16 16 16 17 18 17 16 17 17 17 17 16 17 18 18 17 18 20 18 20 19 18 19 24 28 28 27 26 29 29 29 29 30 30 30 30 30 31 30 31 30 30 29 29 28 27 29 27
14 13 14 13 12 14 16 14 14 16 16 16 16 17 18 17 14 15 15 16 16 16 15 15 13 15 17 18 23 25 28 27 28 27 27 29 29 29 30 31 30 31 31 32 32 31 31 30 32 30 30 28 29 29
13 13 12 12 12 14 13 14 11 14 13 15 15 16 17 15 16 15 14 14 15 15 19 21 21 20 21 22 24 25 27 27 29 29 27 28 28 28 30 30 30 30 32 32 33 32 31 31 31 31 30 28 28 28
12 13 14 15 12 12 14 12 9 12 14 12 13 16 15 16 16 17 22 15 18 22 20 19 22 22 23 23 24 26 28 27 27 28 28 27 28 29 30 30 30 30 31 29 31 31 30 29 30 30 29 28 27 27
12 12 14 13 9 22 13 15 21 29 20 21 20 23 26 26 25 23 24 23 22 26 25 23 21 22 24 25 26 26 25 26 27 27 27 26 28 28 29 28 28 29 28 28 29 30 30 28 29 28 28 28 28 28
8 8 7 11 22 32 25 18 19 24 19 17 23 24 24 25 22 21 22 23 23 21 16 18 24 22 22 23 24 23 25 27 28 29 28 27 27 26 26 25 24 22 19 21 27 29 29 28 28 28 27 28 27 26
23 7 5 16 25 22 20 22 28 28 29 27 24 23 22 22 21 20 20 17 16 18 19 22 24 22 21 20 22 24 28 29 31 30 29 30 29 29 25 23 24 22 21 27 15 18 27 27 27 27 26 27 27 26
16 9 22 26 19 25 30 27 28 29 29 29 25 25 24 22 20 18 18 17 17 20 23 23 24 25 26 25 25 26 28 30 31 30 22 23 25 27 29 15 16 18 24 6 14 24 24 26 26 26 25 26 26 26
17 21 22 23 26 27 30 33 31 31 30 31 29 29 25 21 20 19 18 19 18 15 21 22 23 27 26 26 24 24 27 28 29 29 26 10 20 14 9 7 7 9 1 2 2 5 14 12 9 25 26 26 27 27
18 24 26 24 27 23 22 27 29 28 26 28 30 28 26 24 23 21 19 19 16 21 22 23 23 22 21 23 23 22 19 24 25 24 21 16 12 7 4 5 5 3 3 2 2 2 3 2 16 15 27 28 27 27
19 14 25 23 23 22 30 29 24 24 24 24 24 25 24 24 23 19 18 19 18 20 22 20 21 22 20 20 21 21 19 20 18 16 16 16 14 11 10 13 8 5 8 7 9 7 8 7 7 4 17 22 7 23
Wind_Direction
6 7 323 2 8 10 12 14 16 17 17 19 24 32 36 48 68 73 60 90 71 54 24 113 119 36 256 262 267 292 264 277 281 267 250 237 230 232 225 217 225 222 223 224 228 230 240 286 252 237 231 242 246 245
7 2 3 7 10 11 14 15 18 19 20 25 34 40 41 61 71 80 65 79 94 71 57 234 217 195 229 242 265 249 259 267 288 254 256 238 241 237 226 211 228 222 232 228 230 231 247 271 255 255 252 249 260 257
8 355 9 7 10 12 16 18 24 26 29 37 45 46 47 69 76 82 73 76 79 65 57 94 73 237 199 242 231 232 220 247 235 247 233 239 230 252 220 220 229 243 255 219 218 224 234 255 263 273 274 267 270 282
9 8 6 9 11 15 20 24 31 33 38 48 52 49 59 74 79 80 71 87 86 71 60 77 70 252 234 246 227 240 235 239 244 246 251 248 244 255 222 227 239 247 242 215 206 228 233 258 270 275 280 281 277 286
6 7 297 9 13 18 26 32 38 41 47 58 58 52 69 79 84 84 77 86 89 73 67 73 94 254 251 253 231 226 227 247 257 249 260 244 248 229 226 233 290 269 263 227 229 246 242 253 264 279 278 281 281 288
15 284 301 341 15 22 32 37 40 43 52 66 67 70 85 84 93 91 72 90 88 92 83 75 98 140 263 233 230 239 215 250 269 251 264 253 275 260 227 229 316 302 287 277 261 259 254 265 269 280 280 282 283 288
14 293 313 351 18 26 34 40 40 40 52 68 78 81 77 88 86 74 66 84 90 87 86 80 86 116 202 261 258 243 281 256 273 277 247 257 276 258 250 260 288 285 278 280 290 276 256 268 275 274 280 283 284 284
9 306 300 342 19 27 33 43 46 42 46 60 76 80 80 77 77 81 84 87 90 93 91 85 83 100 126 137 163 243 236 236 268 283 286 287 282 272 251 290 289 292 289 275 281 274 270 271 277 279 280 281 281 282
3 301 307 296 18 25 33 44 50 52 55 58 60 68 70 72 71 72 81 102 84 86 87 89 92 91 129 129 154 183 248 223 264 278 302 283 284 268 276 287 292 296 286 281 286 284 279 274 276 281 281 282 280 279
332 306 304 5 16 23 38 47 48 55 67 62 55 56 50 54 65 73 75 72 92 84 87 87 97 93 99 109 122 140 146 149 150 263 275 290 289 291 299 292 284 300 293 292 288 281 280 274 275 276 275 276 276 275
331 300 304 4 18 31 46 50 54 59 65 48 48 40 37 65 68 91 96 99 85 85 88 89 92 91 94 95 100 113 125 139 126 145 135 224 304 314 324 312 295 311 307 300 294 287 281 278 276 277 276 273 271 271
311 297 305 3 26 44 50 56 72 62 46 42 43 41 46 53 58 70 68 69 73 68 79 84 91 95 98 100 106 105 111 128 118 150 125 106 167 304 322 323 319 318 319 313 305 295 290 283 281 279 276 275 271 270
298 295 295 11 40 45 49 58 97 85 48 63 54 58 59 61 46 31 19 40 48 60 76 70 74 89 93 108 110 110 114 111 116 130 151 189 314 314 314 319 328 332 330 323 318 308 300 294 290 286 281 278 274 271
289 293 330 30 35 44 53 71 91 77 54 55 60 61 67 49 39 34 32 11 17 35 65 60 55 72 82 90 95 90 90 99 104 106 104 219 289 297 295 313 314 317 325 330 328 322 313 305 297 295 293 285 278 276
288 296 39 49 39 42 71 87 95 71 39 49 68 43 27 312 2 357 20 5 26 17 35 45 48 65 63 62 72 63 69 61 61 71 63 286 308 314 302 311 310 315 319 340 334 334 327 324 316 306 302 297 287 281
294 90 45 31 35 44 62 73 60 41 56 312 59 32 39 28 11 353 344 345 338 350 360 18 17 23 21 40 24 26 31 30 23 28 59 341 335 326 317 318 315 311 335 341 342 336 331 329 331 326 318 309 304 298
270 45 45 35 48 59 73 62 62 50 44 35 20 7 9 10 6 355 316 326 330 342 348 351 348 340 354 354 356 2 2 4 3 359 358 358 341 331 322 328 324 326 350 355 355 348 341 347 343 339 334 325 314 305
59 52 49 38 52 66 71 74 57 44 26 17 8 4 16 20 16 15 16 4 309 354 353 1 358 351 359 0 2 7 4 10 3 354 355 351 343 336 327 331 329 332 354 354 349 350 350 344 345 347 343 337 335 324
164 147 113 102 78 67 71 69 51 34 27 24 24 26 33 30 31 40 40 72 143 3 14 13 15 14 18 17 9 8 358 354 347 351 356 354 350 343 345 335 335 329 352 353 351 349 351 354 350 351 351 349 342 337
149 121 97 92 88 70 63 52 47 39 36 34 37 32 39 36 27 16 20 24 30 31 25 28 26 8 4 6 3 3 3 1 0 357 352 348 348 345 346 339 337 326 338 354 348 349 345 342 341 344 347 351 352 346
73 72 73 81 83 83 58 57 57 49 54 54 48 63 51 51 44 37 26 21 20 24 26 29 33 26 20 17 12 9 10 6 3 3 356 351 349 350 347 345 344 343 334 326 335 339 340 342 340 338 342 339 342 342
54 73 78 81 72 66 69 50 55 62 64 62 66 67 53 48 42 45 42 31 25 30 20 23 17 35 31 20 18 10 3 357 6 4 355 348 349 349 346 345 346 343 336 334 332 333 334 340 339 335 336 336 341 339
87 78 74 63 59 55 62 70 60 57 54 62 67 54 54 54 56 64 49 44 46 50 47 37 39 32 32 40 38 18 3 353 352 358 355 351 351 349 343 341 340 339 337 336 332 329 329 331 330 331 336 334 325 330
76 73 65 67 71 62 58 60 66 60 60 59 57 48 38 41 62 50 47 53 58 54 51 49 59 42 27 25 12 9 6 5 360 1 4 356 355 355 350 347 343 339 334 331 330 323 325 326 324 324 327 329 326 321
69 74 74 70 71 59 58 57 65 61 70 66 62 51 43 51 41 35 34 47 45 42 26 21 19 22 13 10 7 9 6 2 1 359 1 358 357 356 354 346 344 345 345 334 327 326 322 320 321 321 321 326 326 319
69 74 57 50 67 55 54 62 68 64 49 61 61 54 57 45 38 30 18 29 31 22 32 30 21 18 20 21 13 6 360 10 7 4 3 3 2 356 352 350 346 344 346 340 334 330 325 322 320 318 320 322 323 322
71 73 67 63 51 11 43 63 46 27 23 38 27 27 346 8 20 13 9 12 358 16 21 20 7 10 13 10 9 9 15 13 12 8 10 11 7 5 359 357 352 349 347 343 340 336 332 326 321 321 321 322 321 321
112 92 76 62 45 21 21 34 32 41 42 40 30 24 17 17 19 14 9 7 15 32 48 30 17 20 20 19 18 23 21 17 12 9 10 14 18 22 20 18 14 17 19 13 352 337 337 334 330 324 323 323 322 324
311 223 199 59 40 43 52 42 28 26 16 20 27 28 25 28 33 35 33 46 56 36 27 24 23 31 35 38 35 25 17 12 8 9 13 11 12 17 31 35 27 30 34 360 41 26 346 340 333 335 325 321 323 327
73 107 42 17 55 50 36 41 37 33 27 36 44 45 47 51 53 56 62 63 61 47 38 36 33 32 28 24 26 26 22 18 15 16 36 36 32 22 16 57 56 51 31 85 12 23 356 333 330 336 335 330 335 330
63 46 45 46 31 35 44 46 41 34 38 47 51 56 68 73 70 65 63 57 63 67 54 51 47 34 34 33 34 32 30 32 31 29 35 70 50 64 73 305 73 72 266 86 119 260 43 64 279 19 341 333 335 333
56 45 36 40 33 42 52 43 41 59 59 58 61 66 65 67 63 65 72 72 81 68 63 57 59 63 66 61 63 67 73 55 50 53 59 72 80 90 90 78 79 75 87 95 276 105 269 258 303 299 10 347 336 331
18 58 39 46 46 53 46 34 37 60 69 66 69 65 66 65 72 84 97 97 94 83 79 85 82 84 88 86 83 83 84 81 82 86 83 85 89 90 86 78 75 61 77 79 82 84 85 87 82 78 327 341 283 333